This demonstration page uses our WeatherBlox Daily Observations layout. Learn more.

Left ArrowRight Arrow

Hourly Observations for August 22, 2022

Temp ( °F °C ) Dew Point ( °F °C ) Humidity (%) Winds ( mph kmh ) Pressure ( in mb ) Visibility ( mi km ) Precip ( " mm )
12:54 am 00:54 Clear 62 16.7 58 14.4 86 86 N 5 7 30.08 1019 10 16 0.00 0.00
1:54 am 01:54 Clear 63 17.2 59 15 87 87 Calm 30.08 1019 10 16 0.00 0.00
2:54 am 02:54 Clear 63 17.2 59 15 87 87 WNW 3 6 30.08 1019 10 16 0.00 0.00
3:54 am 03:54 Clear 59 15 56 13.3 90 90 N 6 9 30.09 1019 10 16 0.00 0.00
4:54 am 04:54 Clear 59 15 56 13.3 90 90 Calm 30.09 1019 10 16 0.00 0.00
5:54 am 05:54 Clear 57 13.9 55 12.8 93 93 N 5 7 30.09 1019 10 16 0.00 0.00
6:54 am 06:54 Sunny 58 14.4 55 12.8 90 90 Calm 30.09 1019 9 14 0.00 0.00
7:54 am 07:54 Sunny with Mist and Fog 61 16.1 58 14.4 90 90 N 3 6 30.10 1019 4 6 0.00 0.00
8:54 am 08:54 Sunny 69 20.6 62 16.7 78 78 Calm 30.11 1020 10 16 0.00 0.00
9:54 am 09:54 Sunny 74 23.3 64 17.8 71 71 S 5 7 30.10 1019 10 16 0.00 0.00
10:54 am 10:54 Sunny 80 26.7 65 18.3 60 60 Calm 30.10 1019 10 16 0.00 0.00
11:54 am 11:54 Sunny 82 27.8 62 16.7 51 51 VRB 3 6 30.09 1019 9 14 0.00 0.00
12:54 pm 12:54 Partly Cloudy 84 28.9 60 15.6 45 45 Calm 30.08 1019 9 14 0.00 0.00
1:54 pm 13:54 Mostly Cloudy 87 30.6 60 15.6 40 40 S 7 11 30.06 1018 10 16 0.00 0.00
2:54 pm 14:54 Partly Cloudy 87 30.6 59 15 39 39 E 5 7 30.04 1017 10 16 0.00 0.00
3:54 pm 15:54 Partly Cloudy 86 30 59 15 40 40 VRB 7 11 30.04 1017 10 16 0.00 0.00
4:54 pm 16:54 Mostly Sunny 88 31.1 60 15.6 39 39 Calm 30.02 1017 10 16 0.00 0.00
5:54 pm 17:54 Mostly Sunny 87 30.6 59 15 39 39 E 9 15 30.02 1017 10 16 0.00 0.00
6:54 pm 18:54 Sunny 85 29.4 60 15.6 43 43 E 8 13 30.01 1016 10 16 0.00 0.00
7:54 pm 19:54 Sunny 82 27.8 60 15.6 47 47 E 7 11 30.00 1016 10 16 0.00 0.00
8:54 pm 20:54 Clear 78 25.6 61 16.1 56 56 ESE 7 11 30.01 1016 10 16 0.00 0.00
9:54 pm 21:54 Clear 74 23.3 60 15.6 62 62 SSE 7 11 30.02 1017 10 16 0.00 0.00
10:54 pm 22:54 Clear 72 22.2 60 15.6 66 66 SSE 6 9 30.02 1017 10 16 0.00 0.00
11:54 pm 23:54 Clear 69 20.6 60 15.6 73 73 S 7 11 30.01 1016 10 16 0.00 0.00

Powered by AerisWeather